Location: Saint Louis
(38.6272°N, 90.1978°W)
Time: 03:46:36
(UTC-05:00)

ISS - Pass Details

Date: 28 January 2013
Orbit: 401 x 404 km, 51.6° (Epoch: 24 July)

Event Time Altitude Azimuth Distance (km) Brightness Sun altitude
Exits shadow 06:32:29 - 313° (NW) 1,616 -0.8 -7.7°
Reaches altitude 10° 06:32:50 10° 313° (NW) 1,474 -1.0 -7.6°
Maximum altitude 06:36:07 68° 38° (NE) 447 -3.0 -7.0°
Drops below altitude 10° 06:39:25 10° 121° (ESE) 1,480 1.1 -6.4°
Sets 06:41:32 0° 124° (SE) 2,344 2.4 -6.0°
